Regional Weather Roundup
Issued by NWS Cleveland, OH

Home | Current Version | Previous Version | Text Only | Print | Product List | Glossary Off
Versions: 1 2 3 4 5 6 7 8 9 10 11 12 13 14 15 16 17 18 19 20 21 22 23 24 25 26 27 28 29 30 31 32 33 34 35 36 37 38 39 40 41 42 43 44 45 46 47 48 49 50

000
ASUS41 KCLE 230100
RWRCLE
OHIO REGIONAL WEATHER ROUNDUP
NATIONAL WEATHER SERVICE WILMINGTON, OH
800 PM EST THU FEB 22 2018

NOTE: "FAIR" INDICATES FEW OR NO CLOUDS BELOW 12,000 FEET WITH NO
SIGNIFICANT WEATHER AND/OR OBSTRUCTIONS TO VISIBILITY.

OHZ001>008-015>018-024>027-034-035-043-044-230200-
   NORTHWEST OHIO

CITY           SKY/WX    TMP DP  RH WIND       PRES   REMARKS
DEFIANCE       CLOUDY    35  30  82 E13       30.45F WCI  26
FINDLAY        CLOUDY    34  30  85 NE17      30.46F WCI  23
TOLEDO EXPRESS CLOUDY    35  30  82 E12       30.49F WCI  27
TOLEDO EXEC    CLOUDY    34  30  85 E10       30.52F WCI  26
LIMA           CLOUDY    34  34 100 NE10      30.44S FOG     WCI  26
$$

OHZ009>014-019>023-028>033-038-089-230200-
   NORTHEAST OHIO

CITY           SKY/WX    TMP DP  RH WIND       PRES   REMARKS
CLE-HOPKINS    CLOUDY    36  34  92 NE13      30.51R
CLE-LAKEFRONT  CLOUDY    35  32  88 NE14      30.50R WCI  26
CUY CO. ARPT   CLOUDY    34  34 100 NE14      30.50R WCI  24
LORAIN-ELYRIA  CLOUDY    34  29  82 NE16      30.49R WCI  24
ASHTABULA      CLOUDY    34  33  96 NE7       30.51S WCI  28
AKRON-CANTON   CLOUDY    44  37  76 E13       30.44R
WOOSTER        NOT AVBL
MANSFIELD      CLOUDY    36  35  96 N8        30.45R FOG
YOUNGSTOWN     CLOUDY    43  37  79 E15       30.44F
$$

OHZ042-051>053-060>062-070>072-077>081-230200-
  SOUTHWEST OHIO

CITY           SKY/WX    TMP DP  RH WIND       PRES   REMARKS
CINC-COVINGTON DRIZZLE   44  44 100 E8        30.37S FOG
CINC-LUNKEN    CLOUDY    45  45 100 NE5       30.40F FOG
HAMILTON       CLOUDY    45  44  97 E7        30.40S
DAYTON         NOT AVBL
WRIGHT-PAT AFB NOT AVBL
DAYTON GENERAL CLOUDY    44  42  93 E7        30.38F FOG
WILMINGTON     CLOUDY    43  43 100 E8        30.39S FOG
$$

OHZ036-037-039>041-045>050-054>059-063>069-073>076-082>088-230200-
  CENTRAL AND SOUTHEAST OHIO

CITY           SKY/WX    TMP DP  RH WIND       PRES   REMARKS
COLUMBUS       CLOUDY    44  41  89 E8        30.43R
OSU AIRPORT    CLOUDY    44  41  89 E9        30.43R
BOLTON FIELD   NOT AVBL
RICKENBACK AFB NOT AVBL
NEWARK         CLOUDY    44  39  82 E6        30.43R
MARION         CLOUDY    37  35  92 NE12      30.44R FOG
LANCASTER      CLOUDY    44  32  62 E9        30.43R
ZANESVILLE     CLOUDY    42  38  85 E8        30.44S
NEW PHILLY     CLOUDY    42  38  85 SE8       30.47R
$$




USA.gov is the U.S. government's official web portal to all federal, state and local government web resources and services.